Dirección General De Aeronáutica Civil

Dirección Meteorológica de Chile - Servicios Climáticos

Informe General de Control de Calidad de la Estación

Listado de niveles de control de calidad para algunos parámetros
Estación Paiguano (300049)
Fecha de Revisión de los datos :

Elementos

Registros Niveles de Control Total
Nivel 0 Nivel 1 Nivel 2 Nivel 3 Errores Porcentaje
01 Temperatura del Aire Seco 103.212 0 . 27 0.03 % 0 . 0 . 27 0.03 %
02 Temperatura de Rocío 103.206 1 0.00 % 0 . 0 . 0 . 1 0.00 %
03 Humedad Relativa del Aire 103.132 0 . 0 . 0 . 0 . 0 0.00 %
04 Temperatura Máxima PM 625 0 . 0 . 0 . 0 . 0 0.00 %
05 Temperatura Mínima AM 460 0 . 0 . 7 1.52 % 0 . 7 1.52 %
06 Agua Caida, Acumulada 6 Horas 20.664 0 . 0 . 0 . 0 . 0 0.00 %
07 Presión Atm. a Nivel de Estación (QFE) 16.575 0 . 0 . 0 . 0 . 0 0.00 %
08 Presión Atm. a Nivel Medio del Mar (QFF) 13.485 0 . 0 . 0 . 0 . 0 0.00 %
09 Presión Atm. Estándar OACI (QNH) 13.485 0 . 0 . 0 . 0 . 0 0.00 %

Totales

374.844 . 0.0003 % . 0.0072 % . 0.0019 % . 0.0000 % 35 0.0093 %

Detalle de Errores Encontrados

Nivel Fecha del Dato Descripción Información Error Fecha Ingreso
0 2018-05-25 17:00:00 Td (Temperatura Del Punto de Rocio) debe ser numérico, entre -50.0 y 50.0 -50.9
Errores del Nivel 1
Nivel Fecha del Dato Descripción Información Error Fecha Ingreso
1 2009-06-02 19:00:00 Ts debe ser mayor o igual a Td Ts=3.4 - Td=4.4 2023-10-26 06:54:00
1 2009-06-03 17:00:00 Ts debe ser mayor o igual a Td Ts=3.8 - Td=4.4 2023-10-26 06:54:00
1 2009-06-04 18:00:00 Ts debe ser mayor o igual a Td Ts=2.8 - Td=4.4 2023-10-26 06:54:00
1 2009-07-07 17:00:00 Ts debe ser mayor o igual a Td Ts=3.5 - Td=4.4 2023-10-26 06:55:00
1 2017-12-02 06:00:00 Ts debe ser mayor o igual a Td Ts=0.0 - Td=6.2 2023-10-26 07:44:00
1 2017-12-02 07:00:00 Ts debe ser mayor o igual a Td Ts=0.0 - Td=6.6 2023-10-26 07:44:00
1 2017-12-02 08:00:00 Ts debe ser mayor o igual a Td Ts=0.0 - Td=7.7 2023-10-26 07:44:00
1 2017-12-02 09:00:00 Ts debe ser mayor o igual a Td Ts=0.0 - Td=8.0 2023-10-26 07:44:00
1 2017-12-02 10:00:00 Ts debe ser mayor o igual a Td Ts=0.0 - Td=8.2 2023-10-26 07:44:00
1 2017-12-02 11:00:00 Ts debe ser mayor o igual a Td Ts=0.0 - Td=8.4 2023-10-26 07:44:00
1 2017-12-02 12:00:00 Ts debe ser mayor o igual a Td Ts=0.0 - Td=9.8 2023-10-26 07:44:00
1 2017-12-02 13:00:00 Ts debe ser mayor o igual a Td Ts=0.0 - Td=10.4 2023-10-26 07:44:00
1 2017-12-02 14:00:00 Ts debe ser mayor o igual a Td Ts=0.0 - Td=10.9 2023-10-26 07:44:00
1 2017-12-02 15:00:00 Ts debe ser mayor o igual a Td Ts=0.0 - Td=8.8 2023-10-26 07:44:00
1 2017-12-02 16:00:00 Ts debe ser mayor o igual a Td Ts=0.0 - Td=6.4 2023-10-26 07:44:00
1 2017-12-02 17:00:00 Ts debe ser mayor o igual a Td Ts=0.0 - Td=7.0 2023-10-26 07:44:00
1 2017-12-02 18:00:00 Ts debe ser mayor o igual a Td Ts=0.0 - Td=7.1 2023-10-26 07:44:00
1 2017-12-02 19:00:00 Ts debe ser mayor o igual a Td Ts=0.0 - Td=7.2 2023-10-26 07:44:00
1 2017-12-02 20:00:00 Ts debe ser mayor o igual a Td Ts=0.0 - Td=8.1 2023-10-26 07:44:00
1 2017-12-02 21:00:00 Ts debe ser mayor o igual a Td Ts=0.0 - Td=8.0 2023-10-26 07:44:00
1 2017-12-02 22:00:00 Ts debe ser mayor o igual a Td Ts=0.0 - Td=7.4 2023-10-26 07:44:00
1 2017-12-02 23:00:00 Ts debe ser mayor o igual a Td Ts=0.0 - Td=7.4 2023-10-26 07:44:00
1 2017-12-03 00:00:00 Ts debe ser mayor o igual a Td Ts=0.0 - Td=7.4 2023-10-26 07:44:00
1 2017-12-03 01:00:00 Ts debe ser mayor o igual a Td Ts=0.0 - Td=7.1 2023-10-26 07:44:00
1 2017-12-03 02:00:00 Ts debe ser mayor o igual a Td Ts=0.0 - Td=7.0 2023-10-26 07:44:00
1 2017-12-03 03:00:00 Ts debe ser mayor o igual a Td Ts=0.0 - Td=6.8 2023-10-26 07:44:00
1 2019-11-24 12:00:00 Ts debe ser mayor o igual a Td Ts=9.4 - Td=10.2 2023-10-26 07:55:00
Errores del Nivel 27
Nivel Fecha del Dato Descripción Información Error Fecha Ingreso
2 2020-01-01 12:00:00 Temperatura 15.2 del 01-01-2020 10:00, Menor que la Mínima 15.3 01-01-2020 12:00 15.2 -- 15.3 2020-02-03 19:27:00
2 2020-01-01 12:00:00 Temperatura 15.2 del 01-01-2020 10:00, Menor que la Mínima 15.3 01-01-2020 12:00 15.2 -- 15.3 2020-02-03 19:27:00
2 2020-01-17 12:00:00 Temperatura 17.4 del 17-01-2020 09:00, Menor que la Mínima 17.7 17-01-2020 12:00 17.4 -- 17.7 2020-02-03 19:28:00
2 2020-01-20 12:00:00 Temperatura 16.2 del 20-01-2020 08:00, Menor que la Mínima 17.1 20-01-2020 12:00 16.2 -- 17.1 2020-02-03 19:28:00
2 2020-01-21 12:00:00 Temperatura 14.9 del 21-01-2020 09:00, Menor que la Mínima 15.5 21-01-2020 12:00 14.9 -- 15.5 2020-02-03 19:28:00
2 2020-01-24 12:00:00 Temperatura 16.7 del 24-01-2020 10:00, Menor que la Mínima 16.9 24-01-2020 12:00 16.7 -- 16.9 2020-02-03 19:28:00
2 2020-01-31 12:00:00 Temperatura 16.2 del 31-01-2020 08:00, Menor que la Mínima 16.5 31-01-2020 12:00 16.2 -- 16.5 2020-02-03 19:28:00
Errores del Nivel 7
Informe generado el 23-02-2024 09:20
Requerimiento: RE6001